Location: Newark
(51.3318°N, 0.0053°E)
Time: 08:06:19
(UTC+00:00)

CAS-6 - Pass Details

Date: 05 July 2022
Orbit: 613 x 634 km, 97.9° (Epoch: 17 August)

Event Time Altitude Azimuth Distance (km) Brightness Sun altitude
Exits shadow 21:16:19 - 131° (SE) 2,099 ? -7.2°
Reaches altitude 10° 21:16:35 10° 130° (SE) 1,997 ? -7.3°
Maximum altitude 21:20:29 34° 66° (ENE) 1,044 ? -7.6°
Drops below altitude 10° 21:24:23 10° 2° (N) 1,999 ? -8.0°
Sets 21:26:43 0° 353° (N) 2,906 ? -8.2°
